TimeCDT,TemperatureF,Dew PointF,Humidity,Sea Level PressureIn,VisibilityMPH,Wind Direction,Wind SpeedMPH,Gust SpeedMPH,PrecipitationIn,Events,Conditions,WindDirDegrees,DateUTC
12:53 AM,77.0,70.0,79,29.92,10.0,South,5.8,-,N/A,,Scattered Clouds,170,2013-08-30 05:53:00
1:53 AM,75.0,70.0,84,29.91,10.0,South,6.9,-,N/A,,Clear,180,2013-08-30 06:53:00
2:53 AM,73.9,70.0,87,29.91,10.0,South,6.9,-,N/A,,Clear,190,2013-08-30 07:53:00
3:53 AM,73.9,70.0,87,29.90,10.0,SSW,6.9,-,N/A,,Clear,200,2013-08-30 08:53:00
4:53 AM,73.0,70.0,90,29.89,10.0,SSW,6.9,-,N/A,,Clear,200,2013-08-30 09:53:00
5:53 AM,73.0,70.0,90,29.89,10.0,SSW,8.1,-,N/A,,Clear,200,2013-08-30 10:53:00
6:53 AM,73.0,70.0,90,29.89,10.0,SSW,6.9,-,N/A,,Clear,210,2013-08-30 11:53:00
7:53 AM,75.0,71.1,87,29.89,10.0,SSW,6.9,-,N/A,,Clear,210,2013-08-30 12:53:00
8:53 AM,80.1,72.0,76,29.87,10.0,SW,6.9,-,N/A,,Clear,220,2013-08-30 13:53:00
9:53 AM,84.9,71.1,63,29.87,10.0,WSW,8.1,-,N/A,,Clear,250,2013-08-30 14:53:00
10:53 AM,88.0,72.0,59,29.86,10.0,WSW,3.5,-,N/A,,Clear,250,2013-08-30 15:53:00
11:53 AM,91.0,73.0,55,29.84,10.0,SW,5.8,-,N/A,,Clear,230,2013-08-30 16:53:00
12:53 PM,95.0,69.1,43,29.83,10.0,WSW,5.8,-,N/A,,Clear,240,2013-08-30 17:53:00
1:53 PM,97.0,66.0,36,29.81,10.0,Calm,Calm,-,N/A,,Clear,0,2013-08-30 18:53:00
2:53 PM,98.1,64.0,33,29.80,10.0,Variable,6.9,-,N/A,,Clear,0,2013-08-30 19:53:00
3:53 PM,100.9,57.9,24,29.79,10.0,West,8.1,-,N/A,,Clear,270,2013-08-30 20:53:00
4:53 PM,100.0,60.1,27,29.78,10.0,West,6.9,-,N/A,,Clear,260,2013-08-30 21:53:00
5:53 PM,95.0,69.1,43,29.77,10.0,WSW,5.8,-,N/A,,Clear,240,2013-08-30 22:53:00
6:53 PM,93.0,69.1,45,29.76,10.0,SW,4.6,-,N/A,,Clear,230,2013-08-30 23:53:00
7:53 PM,86.0,71.1,61,29.77,10.0,Calm,Calm,-,N/A,,Mostly Cloudy,0,2013-08-31 00:53:00
8:53 PM,84.0,68.0,58,29.77,10.0,WSW,3.5,-,N/A,,Partly Cloudy,240,2013-08-31 01:53:00
9:53 PM,81.0,66.9,62,29.76,10.0,WSW,4.6,-,N/A,,Clear,250,2013-08-31 02:53:00
10:53 PM,79.0,66.9,66,29.76,10.0,WSW,8.1,-,N/A,,Clear,240,2013-08-31 03:53:00
11:53 PM,75.9,66.9,74,29.76,10.0,WSW,4.6,-,N/A,,Clear,250,2013-08-31 04:53:00